Location: Brno
(49.2000°N, 16.6330°E)
Time: 01:29:54
(UTC+02:00)

Vanguard 3 - Pass Details

Date: 03 August 2021
Orbit: 510 x 3260 km, 33.3° (Epoch: 19 September)

Event Time Altitude Azimuth Distance (km) Brightness Sun altitude
Rises 19:46:12 0° 247° (WSW) 5,711 12.3 5.7°
Reaches altitude 10° 19:49:41 10° 242° (WSW) 5,024 11.9 5.2°
Maximum altitude 20:04:22 47° 175° (S) 3,746 10.4 2.9°
Drops below altitude 10° 20:22:33 10° 111° (ESE) 6,130 11.0 0.2°
Sets 20:27:22 0° 107° (ESE) 7,014 11.2 -0.5°
